Weather in Inokovka Pervaya

Russia / Tambov Oblast     52°32′36″N   42°32′52″E
temp.,
°C
wind,
m/s
gust,
m/s
humid.,
%
clouds,
%
prec.,
mm/h
press.,
hPa
HPBL,
m
19 september, sun
sun1900:00+8e51056100 0.0 1023375
03:00+7e51059100 0.0 1022347
06:00+7e51069100 0.3 1022407
09:00+7e61174100 0.8 1022391
12:00+8ese71070100 0.4 1022505
15:00+11se71058100 0.6 1021794
18:00+9ese61269100 0.9 1020518
21:00+8ese71578100 1.8 1019525
20 september, mon
mon2000:00+8ese91882100 6.0 1017686
03:00+7ese101881100 10.5 1016735
06:00+7ese81789100 4.7 1015802
09:00+6ese91790100 11.9 1016892
12:00+6ese91686100 5.1 1016790
15:00+8se91680100 5.7 1015779
18:00+8ese81678100 0.0 1015804
21:00+8ese81588100 1.1 1015674
21 september, tue
tue2100:00+9se71388100 1.1 1016589
03:00+8se6129099 1.1 1015438
06:00+8se51093100 0.3 1015399
09:00+9ese598895 0.5 1015368
12:00+13se5675100 0.1 1014743
15:00+16se3567100 0.1 1012850
18:00+13w1183100 0.9 101221
21:00+12sw228581 1.0 101239
22 september, wed
wed2200:00+10sw228591 0.1 101338
03:00+10w238897 0.1 101385
06:00+9wnw229083 0.0 101427
09:00+11wnw0180100 0.0 1014129
12:00+14e116441 0.0 1015542
15:00+16ese235320 0.1 10141226
18:00+13nnw226640 0.3 101515
21:00+11nne227842 0.3 101613
23 september, thu
thu2300:00+10e2288100 0.0 101627
03:00+11e2390100 0.3 101578
06:00+10se128846 0.4 101516
09:00+13ese1277100 0.4 1015152
12:00+14sw226898 0.0 1015316
15:00+17s4649100 0.0 10151799
18:00+14e2254100 0.0 101419
21:00+13se61380100 0.6 1014516